TIANMU-1 04

Last updated on Sat Aug 15 2026 00:02:40 GMT+0000 (Coordinated Universal Time)

1 55974U 23039B 26226.57884045 .00009732 00000+0 17889-3 0 9992 2 55974 97.5196 42.0736 0002446 218.8704 141.2371 15.49437762189888
UTC large
Height (km)
Speed (km/s)
/
Latitude / Longitude
Inclination (degrees)
Orbital Period (minutes)
Azimuth
Elevation
Range (km)
Doppler Factor

Next 0 passes for location: London (51.5072 / 0.1276)

No passes found over London.
TIANMU-1 04